SCP
1 1 1 0 0 0 0 0 0 0 0 0 0 0 0 0 0 0 0 0 0 0 0 0 0 0 0 0 1 1 0 0 0 0 0 0 0 0 0 0 0 0 0 0
1 1 0 0 0 0 0 0 0 0 0 0 0 0 0 0 0 0 0 0 0 0 0 0 0 0 0 0 0 0 0 0 0 0 0 0 0 0 0 0 0 0 0 0
0 0 0 0 0 0 0 0 0 0 0 0 0 0 0 0 0 0 0 0 0 0 0 0 0 0 0 0 0 0 0 0 0 0 0 0 0 0 0 0 0 0 0 0
0 0 0 0 0 0 0 0 0 0 0 0 0 0 0 0 0 0 0 0 0 0 0 0 0 0 0 0 0 0 0 0 0 0 0 0 0 0 0 0 0 0 0 0
0 0 0 0 0 0 0 0 0 0 0 0 0 0 0 0 0 0 0 0 0 0 0 0 0 0 0 0 0 0 0 0 0 0 0 0 0 0 0 0 0 0 0 0
0 0 0 0 0 0 0 0 0 0 0 0 0 0 0 0 0 0 0 0 0 0 0 0 0 0 0 0 0 0 0 0 0 0 0 0 0 0 0 0 0 0 0 0
0 0 0 0 0 0 0 0 0 0 0 0 0 0 0 0 0 0 0 0 0 0 0 0 0 0 0 0 0 0 0 0 0 0 0 0 0 0 0 0 0 0 0 0
0 0 0 0 0 0 0 0 0 0 0 0 0 0 0 0 0 0 0 0 0 0 0 0 0 0 0 0 0 0 0 0 0 0 0 0 0 0 0 0 0 0 0 0
0 0 0 0 0 0 0 0 0 0 0 0 0 0 0 0 0 0 0 0 0 0 0 0 0 0 0 0 0 0 0 0 0 0 0 0 0 0 0 0 0 0 0 0
0 0 0 0 0 0 0 0 0 0 0 0 0 0 0 0 0 0 0 0 0 0 0 0 0 0 0 0 0 0 0 0 0 0 0 0 0 0 0 0 0 0 0 0
0 0 0 0 0 0 0 0 0 0 0 0 0 0 0 0 0 0 0 0 0 0 0 0 0 0 0 0 0 0 0 0 0 0 0 0 0 0 0 0 0 0 0 0
0 0 0 0 0 0 0 0 0 0 0 0 0 0 0 0 0 0 0 0 0 0 0 0 0 0 0 0 0 0 0 0 0 0 0 0 0 0 0 0 0 0 0 0
0 0 0 0 0 0 0 0 0 0 0 0 0 0 0 0 0 0 0 0 0 0 0 0 0 0 0 0 0 0 0 0 0 0 0 0 0 0 0 0 0 0 0 0
0 0 0 0 0 0 0 0 0 0 0 0 0 0 0 0 0 0 0 0 0 0 0 0 0 0 0 0 0 0 0 0 0 0 0 0 0 0 0 0 0 0 0 0
0 0 0 0 0 0 0 0 0 0 0 0 0 0 0 0 0 0 0 0 0 0 0 0 0 0 0 0 0 0 0 0 0 0 0 0 0 0 0 0 0 0 0 0
0 0 0 0 0 0 0 0 0 0 0 0 0 0 0 0 0 0 0 0 0 0 0 0 0 0 0 0 0 0 0 0 0 0 0 0 0 0 0 0 0 0 0 0
0 0 0 0 0 0 0 0 0 0 0 0 0 0 0 0 0 0 0 0 0 0 0 0 0 0 0 0 0 0 0 0 0 0 0 0 0 0 0 0 0 0 0 0
0 0 0 0 0 0 0 0 0 0 0 0 0 0 0 0 0 0 0 0 0 0 0 0 0 0 0 0 0 0 0 0 0 0 0 0 0 0 0 0 0 0 0 0
0 0 0 0 0 0 0 0 0 0 0 0 0 0 0 0 0 0 0 0 0 0 0 0 0 0 0 0 0 0 0 0 0 0 0 0 0 0 0 0 0 0 0 0
0 0 0 0 0 0 0 0 0 0 0 0 0 0 0 0 0 0 0 0 0 0 0 0 0 0 0 0 0 0 0 0 0 0 0 0 0 0 0 0 0 0 0 0
0 0 0 0 0 0 0 0 0 0 0 0 0 0 0 0 0 0 0 0 0 0 0 0 0 0 0 0 0 0 0 0 0 0 0 0 0 0 0 0 0 0 0 0
0 0 0 0 0 0 0 0 0 0 0 0 0 0 0 0 0 0 0 0 0 0 0 0 0 0 0 0 0 0 0 0 0 0 0 0 0 0 0 0 0 0 0 0
0 0 0 0 0 0 0 0 0 0 0 0 0 0 0 0 0 0 0 0 0 0 0 0 0 0 0 0 0 0 0 0 0 0 0 0 0 0 0 0 0 0 0 0
0 0 0 0 0 0 0 0 0 0 0 0 0 0 0 0 0 0 0 0 0 0 0 0 0 0 0 0 0 0 0 0 0 0 0 0 0 0 0 0 0 0 0 0
0 0 0 0 0 0 0 0 0 0 0 0 0 0 0 0 0 0 0 0 0 0 0 0 0 0 0 0 0 0 0 0 0 0 0 0 0 0 0 0 0 0 0 0
0 0 0 0 0 0 0 0 0 0 0 0 0 0 0 0 0 0 0 0 0 0 0 0 0 0 0 0 0 0 0 0 0 0 0 0 0 0 0 0 0 0 0 0
Wind_Speed
4 5 6 7 7 4 4 5 7 5 2 4 8 11 10 6 6 7 6 5 5 4 3 3 3 3 3 3 4 4 4 4 3 3 3 3 2 2 2 2 3 3 3 3
5 7 6 4 5 5 6 7 7 4 1 4 7 11 9 5 5 5 5 5 4 3 1 1 2 2 3 3 4 4 4 4 4 3 3 2 2 2 2 2 2 3 3 3
8 2 3 6 6 6 7 8 7 5 3 4 6 7 4 2 3 3 4 4 3 2 2 2 2 2 3 3 4 4 4 4 4 4 3 3 2 2 2 2 2 2 2 3
6 5 4 6 7 7 6 5 5 5 5 3 3 5 3 2 3 3 2 2 2 2 2 2 2 2 2 3 3 3 4 4 3 4 4 5 4 3 2 2 2 2 2 2
5 4 6 7 6 7 3 1 3 5 5 5 4 6 5 1 3 3 2 2 2 2 2 2 2 2 1 2 2 3 3 3 3 3 4 5 3 2 2 2 3 2 2 2
4 2 4 4 2 4 3 3 2 2 3 6 5 6 5 2 4 3 2 2 2 2 1 1 1 1 1 1 2 2 3 3 3 3 3 4 4 3 3 3 2 2 2 2
5 5 3 3 4 5 5 4 2 3 4 5 3 6 6 2 2 3 3 3 3 2 1 1 1 1 1 2 2 2 3 3 3 3 3 3 4 4 4 3 3 3 2 2
5 6 6 5 5 5 7 6 4 4 4 3 4 7 3 1 2 2 2 2 1 1 1 1 1 1 1 1 2 3 3 3 3 3 3 3 3 3 2 3 3 3 2 2
6 4 2 3 2 5 6 6 3 2 2 5 5 5 4 2 1 1 0 1 1 1 1 1 1 1 1 1 2 3 3 3 3 3 3 3 2 3 3 3 3 2 2 2
4 4 3 2 3 2 3 4 4 5 5 6 6 6 4 4 3 1 0 1 2 2 2 2 1 1 0 1 2 2 3 3 3 3 3 2 2 3 3 3 3 2 2 2
3 4 3 4 8 8 6 6 5 4 4 5 5 4 1 3 2 2 1 2 2 2 2 2 1 0 0 1 1 1 2 2 2 2 2 2 2 2 3 3 3 3 3 3
2 3 4 5 1 3 6 7 7 6 6 5 5 4 3 2 1 1 2 2 3 2 2 1 1 0 1 1 1 1 1 2 2 2 2 2 2 2 2 2 3 3 3 3
2 3 3 3 4 4 5 6 6 4 3 6 7 5 3 1 2 2 3 2 2 2 1 1 1 1 1 1 1 1 2 2 1 2 2 2 2 2 3 2 2 3 3 3
3 5 7 7 3 4 6 7 9 8 7 8 11 9 6 5 4 4 3 3 3 2 1 1 1 1 1 1 2 2 2 1 2 2 2 2 2 2 2 2 2 2 3 3
3 5 6 7 7 6 8 10 11 13 12 11 11 10 10 7 5 4 3 3 3 2 2 2 2 2 2 2 2 2 2 2 2 2 2 2 2 2 2 2 2 2 3 3
3 4 4 6 6 7 10 11 13 14 14 14 13 13 8 6 4 4 4 3 4 3 3 3 3 3 3 3 3 3 3 2 3 3 3 2 2 2 2 2 2 2 3 3
5 4 4 5 4 5 10 10 12 10 10 10 13 10 4 4 5 5 4 4 4 4 4 4 4 4 4 4 3 3 3 2 3 3 3 2 2 2 2 2 2 3 3 3
7 6 4 3 3 9 3 1 5 7 7 8 7 5 4 5 5 4 3 4 4 4 4 4 4 4 4 3 3 3 2 2 3 3 3 2 2 2 2 3 3 3 3 3
8 7 5 4 6 8 5 1 2 5 5 5 6 5 4 3 2 2 1 2 3 4 4 3 3 3 3 3 2 2 3 3 3 3 3 3 3 3 3 3 3 3 3 3
2 5 5 5 6 7 1 2 2 3 5 1 4 4 2 1 3 2 2 3 4 3 3 3 3 2 2 1 2 2 3 3 3 3 3 3 3 4 4 4 3 3 3 3
3 4 7 8 8 6 2 2 1 5 2 2 3 3 3 3 3 3 3 3 3 4 3 3 2 2 2 1 2 3 3 3 3 3 3 3 3 4 4 3 3 3 3 3
5 5 6 6 7 6 1 1 3 2 3 2 2 2 2 3 3 2 3 3 3 3 3 2 2 2 1 1 2 3 3 3 3 3 3 3 3 3 2 3 3 3 3 3
5 4 3 5 4 3 1 2 2 2 2 2 2 3 3 3 3 3 3 3 3 3 3 2 2 2 2 2 2 3 3 2 3 3 3 3 3 3 3 3 3 3 3 3
4 3 4 5 6 5 4 4 3 2 3 3 3 3 2 3 4 4 3 3 3 3 3 2 2 2 3 3 3 3 3 3 3 4 3 3 3 3 3 3 3 3 3 3
5 4 5 7 7 5 4 4 4 4 3 3 3 3 3 3 4 4 3 3 3 3 3 3 3 3 3 3 3 3 3 3 4 4 3 3 3 3 3 3 3 4 4 4
5 6 6 6 5 4 5 4 4 4 4 4 4 4 4 3 4 3 3 3 3 3 3 3 3 4 4 3 3 3 3 3 4 4 4 3 3 3 3 3 3 4 5 7
Wind_Direction
195 209 210 207 212 234 222 231 253 264 276 269 264 276 283 285 283 282 282 280 275 271 267 244 229 227 220 212 197 185 191 184 177 165 165 164 165 163 166 167 165 161 156 153
194 222 226 214 203 211 222 239 255 263 260 270 282 282 280 275 270 279 283 282 279 279 270 222 210 210 210 207 200 183 189 185 185 173 160 166 159 169 163 163 165 165 160 154
212 205 198 196 196 208 228 235 250 269 296 245 285 274 244 241 259 266 271 275 274 261 243 213 203 211 206 200 203 190 185 183 181 164 148 136 139 145 149 157 157 159 155 157
228 231 197 200 214 221 236 232 245 256 268 267 286 282 248 251 274 273 265 266 271 268 255 226 212 212 215 202 198 191 180 175 174 166 166 166 173 181 180 167 155 148 146 155
217 204 205 215 225 219 232 199 231 249 253 267 236 253 261 222 260 269 270 270 275 281 261 234 224 211 206 190 188 178 168 163 167 180 177 179 181 172 142 152 155 150 144 166
247 225 233 233 216 201 169 161 160 200 226 247 227 235 257 213 249 273 276 282 270 266 260 234 215 180 153 158 169 164 162 165 174 184 185 183 179 162 159 176 174 174 165 169
231 216 204 197 179 172 194 197 214 217 219 237 170 235 252 245 263 274 284 288 282 265 252 205 185 168 166 170 164 170 171 169 178 185 188 191 183 172 179 191 192 190 184 186
220 222 197 200 211 198 200 216 224 243 250 252 201 239 247 314 297 286 287 311 318 288 249 222 224 222 209 187 171 176 182 176 179 186 191 194 187 179 179 196 198 197 196 193
218 219 152 200 228 209 190 209 256 251 274 261 236 248 258 215 237 233 261 333 1 335 283 264 245 228 218 190 175 189 188 184 185 188 192 196 191 184 184 196 200 196 193 182
226 230 201 184 185 210 252 180 181 209 227 248 250 245 238 202 204 193 279 329 344 341 318 300 292 274 223 160 157 176 187 187 187 190 198 202 199 192 186 194 195 194 192 186
233 219 194 195 209 202 182 195 213 218 248 246 251 247 169 197 184 231 265 312 322 320 310 299 291 264 112 126 142 162 174 175 180 186 199 205 211 205 194 198 204 201 199 199
211 227 227 225 238 269 225 216 203 215 221 238 259 260 97 169 178 276 290 301 307 307 300 288 282 214 157 156 176 192 186 180 184 186 196 209 220 217 209 211 213 209 206 209
186 210 214 197 191 190 216 215 218 232 230 223 235 241 109 257 282 290 291 295 302 293 299 289 238 220 196 189 205 218 205 192 182 181 194 206 216 224 220 222 220 216 211 212
224 229 238 244 255 187 218 219 212 210 222 232 239 254 261 272 278 282 283 284 285 277 271 244 247 251 241 223 221 223 216 200 192 198 210 219 226 239 232 230 230 226 219 218
219 244 251 265 270 256 250 236 221 224 232 241 252 255 262 265 267 274 271 264 261 267 271 255 250 249 248 242 233 228 213 202 202 212 225 235 236 245 231 222 225 226 227 228
236 246 255 263 252 251 259 245 230 234 241 247 259 266 273 274 269 266 257 254 257 264 275 277 265 255 245 238 236 225 212 206 209 217 231 237 229 237 227 220 222 221 227 231
219 219 236 254 258 273 255 237 222 224 229 232 243 258 280 271 259 259 254 250 256 269 278 274 264 258 252 244 235 229 222 214 218 223 227 228 230 237 231 218 218 222 229 234
216 219 235 253 243 240 255 328 220 222 239 234 249 268 270 268 274 267 256 253 265 275 275 267 266 262 255 250 240 233 226 221 227 232 232 235 237 240 235 225 229 232 235 238
219 208 209 219 244 265 265 235 206 215 248 230 234 257 284 306 289 243 279 299 288 287 281 273 270 266 256 246 235 224 224 221 227 238 243 242 239 238 234 232 237 241 243 247
197 214 213 213 234 246 275 356 299 234 243 197 231 252 268 224 254 266 331 321 309 302 291 284 280 269 255 239 219 224 230 230 237 246 251 247 243 240 238 238 240 247 247 253
185 204 216 227 242 261 339 334 214 220 277 349 259 244 218 235 279 314 305 303 302 304 305 297 280 264 264 250 227 237 244 249 256 255 255 255 248 248 246 243 242 244 249 253
206 204 206 211 228 246 88 161 219 299 3 348 300 258 248 277 300 295 286 291 300 306 310 306 291 290 290 255 240 251 260 270 269 257 252 256 256 256 250 242 244 244 244 250
224 229 230 224 240 331 248 269 302 311 314 327 317 298 273 282 289 295 292 294 302 305 313 311 300 299 301 281 260 261 272 275 267 262 260 261 264 258 246 235 237 241 241 246
242 248 244 258 270 289 292 299 303 301 306 319 316 305 281 282 295 300 301 303 305 308 308 306 298 290 295 295 279 270 275 271 260 259 263 263 262 260 253 245 238 239 240 244
263 230 245 258 274 286 278 274 284 300 308 316 318 309 296 295 298 297 298 301 303 307 306 297 288 287 293 296 289 283 278 269 263 263 263 259 256 256 254 253 251 250 248 250
239 232 238 259 270 266 284 301 293 283 288 289 295 304 303 292 288 291 293 299 299 301 306 302 297 296 298 295 290 288 282 269 263 266 268 265 257 251 251 257 265 261 258 260